Time,TemperatureF,DewpointF,PressureIn,WindDirection,WindDirectionDegrees,WindSpeedMPH,WindSpeedGustMPH,Humidity,HourlyPrecipIn,Conditions,Clouds,dailyrainin,SoftwareType,DateUTC
2013-05-30 00:02:00,74.0,70.0,29.74,WSW,248,2.0,8.0,86,0.00,,,0.09,,2013-05-30 05:02:00,
2013-05-30 00:12:00,74.0,70.0,29.74,WSW,248,2.0,8.0,86,0.00,,,0.09,,2013-05-30 05:12:00,
2013-05-30 00:22:00,74.0,70.0,29.75,SSE,156,2.0,7.0,86,0.00,,,0.09,,2013-05-30 05:22:00,
2013-05-30 00:32:00,74.0,70.0,29.75,South,183,3.0,8.0,87,0.00,,,0.09,,2013-05-30 05:32:00,
2013-05-30 00:42:00,74.0,70.0,29.75,South,183,3.0,8.0,87,0.00,,,0.09,,2013-05-30 05:42:00,
2013-05-30 00:52:00,74.0,70.0,29.75,SSW,201,1.0,10.0,87,0.00,,,0.09,,2013-05-30 05:52:00,
2013-05-30 01:01:00,74.0,70.0,29.76,NE,46,2.0,11.0,87,0.00,,,0.09,,2013-05-30 06:01:00,
2013-05-30 01:12:00,74.0,70.0,29.76,NE,46,2.0,11.0,87,0.00,,,0.09,,2013-05-30 06:12:00,
2013-05-30 01:22:00,74.0,70.0,29.76,NE,56,1.0,9.0,87,0.00,,,0.09,,2013-05-30 06:22:00,
2013-05-30 01:32:00,74.0,70.0,29.75,NE,41,2.0,14.0,87,0.00,,,0.09,,2013-05-30 06:32:00,
2013-05-30 01:42:00,74.0,70.0,29.75,NE,41,2.0,14.0,87,0.00,,,0.09,,2013-05-30 06:42:00,
2013-05-30 01:52:00,74.0,70.0,29.75,South,184,1.0,9.0,87,0.00,,,0.09,,2013-05-30 06:52:00,
2013-05-30 02:01:00,74.0,70.0,29.75,East,94,3.0,15.0,87,0.00,,,0.09,,2013-05-30 07:01:00,
2013-05-30 02:12:00,74.0,70.0,29.75,East,94,3.0,15.0,87,0.00,,,0.09,,2013-05-30 07:12:00,
2013-05-30 02:21:00,74.0,70.0,29.75,SW,215,3.0,16.0,87,0.00,,,0.09,,2013-05-30 07:21:00,
2013-05-30 02:31:00,74.0,70.0,29.75,SW,215,3.0,16.0,87,0.00,,,0.09,,2013-05-30 07:31:00,
2013-05-30 02:42:00,74.0,70.0,29.75,SW,215,3.0,16.0,87,0.00,,,0.09,,2013-05-30 07:42:00,
2013-05-30 02:52:00,74.0,70.0,29.74,SSE,156,4.0,15.0,87,0.00,,,0.09,,2013-05-30 07:52:00,
2013-05-30 03:02:00,74.0,70.0,29.74,SE,133,2.0,16.0,87,0.00,,,0.09,,2013-05-30 08:02:00,
2013-05-30 03:11:00,74.0,70.0,29.74,SE,133,2.0,16.0,87,0.00,,,0.09,,2013-05-30 08:11:00,
2013-05-30 03:21:00,74.0,70.0,29.74,SSE,150,3.0,15.0,87,0.00,,,0.09,,2013-05-30 08:21:00,
2013-05-30 03:32:00,74.0,70.0,29.74,ESE,109,3.0,14.0,87,0.00,,,0.09,,2013-05-30 08:32:00,
2013-05-30 03:42:00,74.0,70.0,29.74,ESE,109,3.0,14.0,87,0.00,,,0.09,,2013-05-30 08:42:00,
2013-05-30 03:52:00,74.0,70.0,29.75,WSW,249,4.0,12.0,87,0.00,,,0.09,,2013-05-30 08:52:00,
2013-05-30 04:01:00,74.0,70.0,29.75,SSW,205,1.0,9.0,87,0.00,,,0.09,,2013-05-30 09:01:00,
2013-05-30 04:11:00,74.0,70.0,29.75,SSW,205,1.0,9.0,87,0.00,,,0.09,,2013-05-30 09:11:00,
2013-05-30 04:21:00,74.0,70.0,29.75,SSW,200,1.0,12.0,87,0.00,,,0.09,,2013-05-30 09:21:00,
2013-05-30 04:33:00,74.0,70.0,29.75,SE,146,1.0,7.0,87,0.00,,,0.09,,2013-05-30 09:33:00,
2013-05-30 04:42:00,74.0,70.0,29.75,SE,146,1.0,7.0,87,0.00,,,0.09,,2013-05-30 09:42:00,
2013-05-30 04:53:00,74.0,70.0,29.75,SW,236,1.0,11.0,86,0.00,,,0.09,,2013-05-30 09:53:00,
2013-05-30 05:03:00,74.0,70.0,29.75,SW,214,3.0,10.0,86,0.00,,,0.09,,2013-05-30 10:03:00,
2013-05-30 05:13:00,74.0,70.0,29.75,SW,214,3.0,10.0,86,0.00,,,0.09,,2013-05-30 10:13:00,
2013-05-30 05:22:00,74.0,70.0,29.75,West,265,0.0,11.0,86,0.00,,,0.09,,2013-05-30 10:22:00,
2013-05-30 05:32:00,74.0,70.0,29.75,South,187,1.0,7.0,86,0.00,,,0.09,,2013-05-30 10:32:00,
2013-05-30 05:42:00,74.0,70.0,29.75,South,187,1.0,7.0,86,0.00,,,0.09,,2013-05-30 10:42:00,
2013-05-30 05:52:00,74.0,70.0,29.75,SSW,210,1.0,8.0,86,0.00,,,0.09,,2013-05-30 10:52:00,
2013-05-30 06:03:00,74.0,70.0,29.76,SSE,165,4.0,11.0,86,0.00,,,0.09,,2013-05-30 11:03:00,
2013-05-30 06:12:00,74.0,70.0,29.76,SSE,165,4.0,11.0,86,0.00,,,0.09,,2013-05-30 11:12:00,
2013-05-30 06:22:00,74.0,69.0,29.76,SSW,211,3.0,11.0,85,0.00,,,0.09,,2013-05-30 11:22:00,
2013-05-30 06:32:00,74.0,69.0,29.76,SE,129,2.0,11.0,85,0.00,,,0.09,,2013-05-30 11:32:00,
2013-05-30 06:42:00,74.0,69.0,29.76,SE,129,2.0,11.0,85,0.00,,,0.09,,2013-05-30 11:42:00,
2013-05-30 06:52:00,74.0,69.0,29.77,North,358,1.0,9.0,85,0.00,,,0.09,,2013-05-30 11:52:00,
2013-05-30 07:01:00,74.0,69.0,29.77,NNE,15,2.0,8.0,85,0.00,,,0.09,,2013-05-30 12:01:00,
2013-05-30 07:11:00,74.0,69.0,29.77,NNE,15,2.0,8.0,85,0.00,,,0.09,,2013-05-30 12:11:00,
2013-05-30 07:22:00,74.0,69.0,29.77,NNE,26,3.0,11.0,85,0.00,,,0.09,,2013-05-30 12:22:00,
2013-05-30 07:32:00,74.0,69.0,29.77,East,98,2.0,11.0,85,0.00,,,0.09,,2013-05-30 12:32:00,
2013-05-30 07:42:00,74.0,69.0,29.77,East,98,2.0,11.0,85,0.00,,,0.09,,2013-05-30 12:42:00,
2013-05-30 07:52:00,75.0,70.0,29.78,ESE,105,3.0,10.0,85,0.00,,,0.09,,2013-05-30 12:52:00,
2013-05-30 08:01:00,75.0,70.0,29.76,SSW,211,2.0,8.0,85,0.00,,,0.09,,2013-05-30 13:01:00,
2013-05-30 08:11:00,75.0,70.0,29.76,SSW,211,2.0,8.0,85,0.00,,,0.09,,2013-05-30 13:11:00,
2013-05-30 08:22:00,76.0,71.0,29.76,NE,34,2.0,10.0,84,0.00,,,0.09,,2013-05-30 13:22:00,
2013-05-30 08:32:00,75.0,71.0,29.77,SSE,153,1.0,9.0,86,0.00,,,0.09,,2013-05-30 13:32:00,
2013-05-30 08:42:00,75.0,71.0,29.77,SSE,153,1.0,9.0,86,0.00,,,0.09,,2013-05-30 13:42:00,
2013-05-30 08:52:00,75.0,70.0,29.78,NE,43,1.0,9.0,85,0.00,,,0.09,,2013-05-30 13:52:00,
2013-05-30 09:01:00,77.0,71.0,29.79,SSE,155,2.0,7.0,82,0.00,,,0.09,,2013-05-30 14:01:00,
2013-05-30 09:11:00,77.0,71.0,29.79,SSE,155,2.0,7.0,82,0.00,,,0.09,,2013-05-30 14:11:00,
2013-05-30 09:22:00,78.0,71.0,29.79,ESE,120,3.0,15.0,79,0.00,,,0.09,,2013-05-30 14:22:00,
2013-05-30 09:32:00,78.0,71.0,29.79,NE,53,4.0,19.0,80,0.00,,,0.09,,2013-05-30 14:32:00,
2013-05-30 09:42:00,78.0,71.0,29.79,NE,53,4.0,19.0,80,0.00,,,0.09,,2013-05-30 14:42:00,
2013-05-30 09:51:00,79.0,72.0,29.79,South,173,5.0,18.0,79,0.00,,,0.09,,2013-05-30 14:51:00,
2013-05-30 10:01:00,79.0,72.0,29.78,SSE,160,4.0,17.0,78,0.00,,,0.09,,2013-05-30 15:01:00,
2013-05-30 10:11:00,79.0,72.0,29.78,SSE,160,4.0,17.0,78,0.00,,,0.09,,2013-05-30 15:11:00,
2013-05-30 10:22:00,78.0,71.0,29.78,WSW,249,5.0,21.0,79,0.00,,,0.09,,2013-05-30 15:22:00,
2013-05-30 10:33:00,79.0,72.0,29.78,SSE,159,5.0,16.0,78,0.00,,,0.09,,2013-05-30 15:33:00,
2013-05-30 10:42:00,80.0,72.0,29.78,SW,222,3.0,15.0,78,0.00,,,0.09,,2013-05-30 15:42:00,
2013-05-30 10:52:00,80.0,72.0,29.78,SW,222,3.0,15.0,78,0.00,,,0.09,,2013-05-30 15:52:00,
2013-05-30 11:03:00,80.0,72.0,29.78,ENE,63,2.0,14.0,77,0.00,,,0.09,,2013-05-30 16:03:00,
2013-05-30 11:12:00,81.0,72.0,29.78,SSE,148,3.0,17.0,75,0.00,,,0.09,,2013-05-30 16:12:00,
2013-05-30 11:22:00,81.0,72.0,29.78,SSE,148,3.0,17.0,75,0.00,,,0.09,,2013-05-30 16:22:00,
2013-05-30 11:33:00,82.0,72.0,29.77,SSE,167,6.0,18.0,73,0.00,,,0.09,,2013-05-30 16:33:00,
2013-05-30 11:42:00,82.0,72.0,29.78,NE,56,5.0,19.0,72,0.00,,,0.09,,2013-05-30 16:42:00,
2013-05-30 11:52:00,82.0,72.0,29.78,NE,56,5.0,19.0,72,0.00,,,0.09,,2013-05-30 16:52:00,
2013-05-30 12:02:00,83.0,73.0,29.78,South,176,4.0,12.0,71,0.00,,,0.09,,2013-05-30 17:02:00,
2013-05-30 12:11:00,83.0,73.0,29.78,South,176,4.0,12.0,71,0.00,,,0.09,,2013-05-30 17:11:00,
2013-05-30 12:22:00,82.0,72.0,29.78,East,88,4.0,13.0,71,0.00,,,0.09,,2013-05-30 17:22:00,
2013-05-30 12:32:00,83.0,73.0,29.78,SSE,166,4.0,17.0,71,0.00,,,0.09,,2013-05-30 17:32:00,
2013-05-30 12:42:00,83.0,73.0,29.78,SSE,166,4.0,17.0,71,0.00,,,0.09,,2013-05-30 17:42:00,
2013-05-30 12:52:00,83.0,72.0,29.78,South,188,4.0,10.0,70,0.00,,,0.09,,2013-05-30 17:52:00,
2013-05-30 13:02:00,83.0,72.0,29.78,SSE,150,4.0,15.0,70,0.00,,,0.09,,2013-05-30 18:02:00,
2013-05-30 13:11:00,83.0,72.0,29.78,SSE,150,4.0,15.0,70,0.00,,,0.09,,2013-05-30 18:11:00,
2013-05-30 13:21:00,83.0,73.0,29.78,SW,219,3.0,12.0,71,0.00,,,0.09,,2013-05-30 18:21:00,
2013-05-30 13:32:00,82.0,72.0,29.78,SE,139,3.0,15.0,72,0.00,,,0.09,,2013-05-30 18:32:00,
2013-05-30 13:42:00,82.0,72.0,29.78,SE,139,3.0,15.0,72,0.00,,,0.09,,2013-05-30 18:42:00,
2013-05-30 13:51:00,82.0,72.0,29.78,South,185,4.0,11.0,72,0.00,,,0.09,,2013-05-30 18:51:00,
2013-05-30 14:01:00,82.0,73.0,29.77,ESE,109,3.0,9.0,74,0.00,,,0.09,,2013-05-30 19:01:00,
2013-05-30 14:12:00,82.0,73.0,29.77,ESE,109,3.0,9.0,74,0.00,,,0.09,,2013-05-30 19:12:00,
2013-05-30 14:23:00,82.0,72.0,29.77,SSE,156,2.0,9.0,73,0.00,,,0.09,,2013-05-30 19:23:00,
2013-05-30 14:32:00,84.0,74.0,29.76,NNE,31,1.0,11.0,71,0.00,,,0.09,,2013-05-30 19:32:00,
2013-05-30 14:42:00,84.0,74.0,29.76,NNE,31,1.0,11.0,71,0.00,,,0.09,,2013-05-30 19:42:00,
2013-05-30 14:52:00,84.0,74.0,29.75,SW,231,1.0,12.0,71,0.00,,,0.09,,2013-05-30 19:52:00,
2013-05-30 15:01:00,84.0,74.0,29.75,East,86,3.0,12.0,71,0.00,,,0.09,,2013-05-30 20:01:00,
2013-05-30 15:11:00,84.0,74.0,29.75,East,86,3.0,12.0,71,0.00,,,0.09,,2013-05-30 20:11:00,
2013-05-30 15:22:00,85.0,73.0,29.74,South,169,4.0,12.0,68,0.00,,,0.09,,2013-05-30 20:22:00,
2013-05-30 15:33:00,86.0,73.0,29.74,NW,311,3.0,15.0,66,0.00,,,0.09,,2013-05-30 20:33:00,
2013-05-30 15:42:00,86.0,73.0,29.74,NW,311,3.0,15.0,66,0.00,,,0.09,,2013-05-30 20:42:00,
2013-05-30 15:52:00,87.0,74.0,29.73,South,177,5.0,13.0,65,0.00,,,0.09,,2013-05-30 20:52:00,
2013-05-30 16:01:00,87.0,73.0,29.72,SE,133,4.0,12.0,64,0.00,,,0.09,,2013-05-30 21:01:00,
2013-05-30 16:11:00,87.0,73.0,29.72,SSW,197,4.0,16.0,64,0.00,,,0.09,,2013-05-30 21:11:00,
2013-05-30 16:22:00,87.0,73.0,29.72,SSW,197,4.0,16.0,64,0.00,,,0.09,,2013-05-30 21:22:00,
2013-05-30 16:33:00,87.0,73.0,29.71,SSE,160,4.0,10.0,63,0.00,,,0.09,,2013-05-30 21:33:00,
2013-05-30 16:43:00,87.0,73.0,29.71,SSE,160,4.0,10.0,63,0.00,,,0.09,,2013-05-30 21:43:00,
2013-05-30 16:53:00,88.0,74.0,29.71,SW,226,4.0,14.0,63,0.00,,,0.09,,2013-05-30 21:53:00,
2013-05-30 17:02:00,87.0,73.0,29.70,SE,124,3.0,13.0,64,0.00,,,0.09,,2013-05-30 22:02:00,
2013-05-30 17:12:00,87.0,73.0,29.70,SE,124,3.0,13.0,64,0.00,,,0.09,,2013-05-30 22:12:00,
2013-05-30 17:22:00,87.0,73.0,29.70,SW,232,4.0,12.0,63,0.00,,,0.09,,2013-05-30 22:22:00,
2013-05-30 17:33:00,87.0,72.0,29.70,WSW,249,4.0,15.0,62,0.00,,,0.09,,2013-05-30 22:33:00,
2013-05-30 17:42:00,88.0,72.0,29.70,SSW,211,4.0,15.0,60,0.00,,,0.09,,2013-05-30 22:42:00,
2013-05-30 17:52:00,88.0,72.0,29.70,SSW,211,4.0,15.0,60,0.00,,,0.09,,2013-05-30 22:52:00,
2013-05-30 18:02:00,88.0,72.0,29.69,South,181,4.0,17.0,60,0.00,,,0.09,,2013-05-30 23:02:00,
2013-05-30 18:11:00,89.0,72.0,29.68,South,181,4.0,13.0,58,0.00,,,0.09,,2013-05-30 23:11:00,
2013-05-30 18:22:00,89.0,72.0,29.68,South,181,4.0,13.0,58,0.00,,,0.09,,2013-05-30 23:22:00,
2013-05-30 18:32:00,88.0,72.0,29.67,SSW,210,4.0,18.0,59,0.00,,,0.09,,2013-05-30 23:32:00,
2013-05-30 18:41:00,88.0,72.0,29.67,SSW,210,4.0,18.0,59,0.00,,,0.09,,2013-05-30 23:41:00,
2013-05-30 18:52:00,88.0,72.0,29.68,South,173,6.0,15.0,59,0.00,,,0.09,,2013-05-30 23:52:00,
2013-05-30 19:01:00,88.0,72.0,29.68,SE,143,1.0,13.0,60,0.00,,,0.09,,2013-05-31 00:01:00,
2013-05-30 19:11:00,88.0,73.0,29.68,East,94,4.0,13.0,62,0.00,,,0.09,,2013-05-31 00:11:00,
2013-05-30 19:22:00,88.0,73.0,29.68,East,94,4.0,13.0,62,0.00,,,0.09,,2013-05-31 00:22:00,
2013-05-30 19:32:00,88.0,73.0,29.70,SSW,198,3.0,10.0,62,0.00,,,0.05,,2013-05-31 00:32:00,
2013-05-30 19:42:00,87.0,73.0,29.70,SSE,152,2.0,13.0,63,0.00,,,0.05,,2013-05-31 00:42:00,
2013-05-30 19:52:00,87.0,73.0,29.70,SSE,152,2.0,13.0,63,0.00,,,0.05,,2013-05-31 00:52:00,
2013-05-30 20:01:00,87.0,73.0,29.70,SW,224,5.0,12.0,63,0.00,,,0.05,,2013-05-31 01:01:00,
2013-05-30 20:12:00,86.0,72.0,29.70,SSE,153,3.0,11.0,64,0.00,,,0.05,,2013-05-31 01:12:00,
2013-05-30 20:21:00,86.0,72.0,29.70,SSE,153,3.0,11.0,64,0.00,,,0.05,,2013-05-31 01:21:00,
2013-05-30 20:32:00,86.0,73.0,29.71,South,174,1.0,8.0,65,0.00,,,0.03,,2013-05-31 01:32:00,
2013-05-30 20:42:00,85.0,72.0,29.70,SSE,162,3.0,10.0,66,0.00,,,0.03,,2013-05-31 01:42:00,
2013-05-30 20:52:00,85.0,72.0,29.70,SSE,162,3.0,10.0,66,0.00,,,0.03,,2013-05-31 01:52:00,
2013-05-30 21:02:00,85.0,72.0,29.70,South,190,2.0,11.0,66,0.00,,,0.03,,2013-05-31 02:02:00,
2013-05-30 21:11:00,85.0,72.0,29.70,South,190,2.0,11.0,66,0.00,,,0.03,,2013-05-31 02:11:00,
2013-05-30 21:21:00,84.0,72.0,29.70,ESE,103,2.0,11.0,67,0.00,,,0.03,,2013-05-31 02:21:00,
2013-05-30 21:32:00,84.0,72.0,29.70,WSW,246,0.0,4.0,68,0.00,,,0.01,,2013-05-31 02:32:00,
2013-05-30 21:42:00,84.0,72.0,29.70,WSW,246,0.0,4.0,68,0.00,,,0.01,,2013-05-31 02:42:00,
2013-05-30 21:51:00,83.0,73.0,29.70,SE,146,1.0,8.0,71,0.00,,,0.01,,2013-05-31 02:51:00,
2013-05-30 22:01:00,83.0,73.0,29.70,SW,228,3.0,9.0,72,0.00,,,0.01,,2013-05-31 03:01:00,
2013-05-30 22:11:00,83.0,73.0,29.70,SW,228,3.0,9.0,72,0.00,,,0.01,,2013-05-31 03:11:00,
2013-05-30 22:21:00,83.0,73.0,29.72,SW,231,2.0,9.0,72,0.00,,,0.01,,2013-05-31 03:21:00,
2013-05-30 22:33:00,83.0,73.0,29.72,ENE,60,0.0,5.0,73,0.00,,,0.00,,2013-05-31 03:33:00,
2013-05-30 22:43:00,83.0,73.0,29.72,ENE,60,0.0,5.0,73,0.00,,,0.00,,2013-05-31 03:43:00,
2013-05-30 22:53:00,82.0,73.0,29.74,SSE,163,1.0,9.0,74,0.00,,,0.00,,2013-05-31 03:53:00,
2013-05-30 23:02:00,82.0,73.0,29.75,NNE,32,1.0,8.0,75,0.00,,,0.00,,2013-05-31 04:02:00,
2013-05-30 23:12:00,82.0,73.0,29.75,NNE,32,1.0,8.0,75,0.00,,,0.00,,2013-05-31 04:12:00,
2013-05-30 23:22:00,81.0,73.0,29.75,South,185,2.0,8.0,76,0.00,,,0.00,,2013-05-31 04:22:00,
2013-05-30 23:33:00,81.0,73.0,29.75,North,352,2.0,11.0,77,0.00,,,0.00,,2013-05-31 04:33:00,
2013-05-30 23:42:00,81.0,73.0,29.75,North,352,2.0,11.0,77,0.00,,,0.00,,2013-05-31 04:42:00,
2013-05-30 23:53:00,81.0,73.0,29.76,East,88,2.0,10.0,77,0.00,,,0.00,,2013-05-31 04:53:00,